CW8690 Weather Reports


Display with metric or nautical units.
time (UTC)temp
F
wind
direction
speed
MPH
gust
MPH
rain 1hr
in
rain 24hr
in
rain mn
in
humidity
%
barometer
mb
20260507125640 79 73 6.0 9.0 0.00 0.00 0.00 97 1009.4
20260507124155 79 57 2.0 6.0 0.00 0.00 0.00 98 1009.4
20260507122620 79 84 5.0 9.0 0.00 0.00 0.00 97 1008.9
20260507121120 79 74 3.0 9.0 0.00 0.00 0.00 97 1008.5
20260507115620 79 76 4.0 8.0 0.00 0.00 0.00 98 1008.5
20260507114118 79 89 3.0 6.0 0.00 0.00 0.00 97 1008.2
20260507112618 79 86 0.0 2.0 0.00 0.00 0.00 97 1008.3
20260507111135 79 86 1.0 6.0 0.00 0.00 0.00 97 1008.3
20260507105636 79 56 5.0 9.0 0.00 0.00 0.00 97 1007.4
20260507104119 79 69 5.0 12.0 0.00 0.00 0.00 97 1007.5
20260507102618 79 93 3.0 6.0 0.00 0.00 0.00 97 1007.8
20260507101118 79 90 3.0 5.0 0.00 0.00 0.00 96 1008.4
20260507095619 80 83 2.0 6.0 0.00 0.00 0.00 96 1008.3
20260507094137 80 76 0.0 0.0 0.00 0.00 0.00 96 1008.6
20260507092620 80 76 0.0 2.0 0.00 0.00 0.00 96 1008.6
20260507091138 80 76 0.0 0.0 0.00 0.00 0.00 96 1008.5
20260507085630 80 76 0.0 4.0 0.00 0.00 0.00 96 1008.3
20260507084148 80 103 2.0 4.0 0.00 0.00 0.00 95 1008.0
20260507082627 80 106 0.0 3.0 0.00 0.00 0.00 95 1008.2
20260507081127 80 105 0.0 0.0 0.00 0.00 0.00 95 1008.5
20260507075627 80 102 0.0 3.0 0.00 0.00 0.00 95 1008.6
20260507074130 80 101 1.0 3.0 0.00 0.00 0.00 95 1008.4
20260507072630 80 132 1.0 3.0 0.00 0.00 0.00 95 1008.4
20260507071131 80 132 1.0 4.0 0.00 0.00 0.00 95 1008.5
20260507065651 81 128 2.0 7.0 0.00 0.00 0.00 95 1008.5
20260507064128 81 134 3.0 8.0 0.00 0.00 0.00 95 1008.6
20260507062631 81 126 2.0 7.0 0.00 0.00 0.00 95 1008.6
20260507061127 81 141 3.0 7.0 0.00 0.00 0.00 95 1008.5
20260507055632 81 153 2.0 8.0 0.00 0.00 0.00 95 1008.3
20260507054124 81 130 3.0 8.0 0.00 0.00 0.00 95 1008.5
20260507052625 81 122 3.0 7.0 0.00 0.00 0.00 95 1008.6
20260507051124 81 132 5.0 11.0 0.00 0.00 0.00 95 1008.6
20260507045634 81 149 3.0 8.0 0.00 0.00 0.00 95 1008.4
20260507044125 81 81 3.0 7.0 0.00 0.00 0.00 95 1008.2
20260507042624 81 93 3.0 6.0 0.00 0.00 0.00 95 1008.3
20260507041123 81 80 2.0 7.0 0.00 0.00 0.00 95 1008.2
20260507035642 81 127 4.0 8.0 0.00 0.00 0.00 95 1007.9
20260507034143 81 360 4.0 10.0 0.00 0.00 0.00 95 1007.7
20260507032618 81 69 3.0 8.0 0.00 0.00 0.00 95 1007.5
20260507031118 81 110 4.0 10.0 0.00 0.00 0.00 95 1007.1
20260507025623 81 107 6.0 10.0 0.00 0.00 0.00 95 1006.9
20260507024138 81 136 3.0 8.0 0.00 0.00 0.00 95 1006.8
20260507022619 81 148 3.0 7.0 0.00 0.00 0.00 95 1006.5
20260507021121 81 80 3.0 9.0 0.00 0.00 0.00 94 1006.6
20260507015622 81 91 4.0 8.0 0.00 0.00 0.00 94 1006.2
20260507014121 81 113 4.0 9.0 0.00 0.00 0.00 94 1005.9
20260507012623 81 135 5.0 11.0 0.00 0.00 0.00 93 1005.4
20260507011124 82 108 3.0 12.0 0.00 0.00 0.00 92 1005.3
20260507005622 82 146 6.0 11.0 0.00 0.00 0.00 91 1005.0
20260507004122 83 105 4.0 11.0 0.00 0.00 0.00 90 1004.8
20260507002642 83 143 5.0 12.0 0.00 0.00 0.00 89 1004.8
20260507001123 85 46 6.0 11.0 0.00 0.00 0.00 87 1004.8
20260506235625 86 130 6.0 13.0 0.00 0.00 0.00 85 1004.4
20260506234118 86 129 6.0 14.0 0.00 0.00 0.00 85 1004.4
20260506232639 87 144 7.0 13.0 0.00 0.00 0.00 83 1004.1
20260506231132 88 97 6.0 17.0 0.00 0.00 0.00 82 1003.9
20260506225626 88 62 7.0 14.0 0.00 0.00 0.00 81 1003.8
20260506224126 89 97 8.0 17.0 0.00 0.00 0.00 81 1003.7
20260506222620 89 81 9.0 18.0 0.00 0.00 0.00 81 1003.6
20260506221116 90 93 8.0 16.0 0.00 0.00 0.00 78 1003.8
20260506215620 94 109 5.0 15.0 0.00 0.00 0.00 70 1003.6
20260506214152 96 214 4.0 7.0 0.00 0.00 0.00 65 1003.6
20260506212617 95 202 4.0 8.0 0.00 0.00 0.00 66 1003.7
20260506211115 95 180 5.0 10.0 0.00 0.00 0.00 65 1003.6
20260506205617 94 84 5.0 11.0 0.00 0.00 0.00 69 1003.8
20260506204151 94 139 7.0 13.0 0.00 0.00 0.00 68 1003.9
20260506202630 94 113 7.0 11.0 0.00 0.00 0.00 69 1004.4
20260506201127 93 171 8.0 12.0 0.00 0.00 0.00 70 1004.4
20260506195622 93 180 6.0 11.0 0.00 0.00 0.00 70 1004.4
20260506194126 92 167 7.0 11.0 0.00 0.00 0.00 71 1004.6
20260506185646 92 175 7.0 15.0 0.00 0.00 0.00 72 1005.2
20260506184143 91 209 6.0 19.0 0.00 0.00 0.00 75 1005.1
20260506182620 90 204 6.0 16.0 0.00 0.00 0.00 76 1005.3
20260506181120 90 225 7.0 15.0 0.00 0.00 0.00 77 1005.6
20260506175643 89 115 7.0 17.0 0.00 0.00 0.00 78 1005.7
20260506174118 89 157 9.0 19.0 0.00 0.00 0.00 78 1005.8
20260506172636 88 166 9.0 17.0 0.00 0.00 0.00 79 1006.0
20260506171204 87 159 8.0 14.0 0.00 0.00 0.00 80 1006.0
20260506165642 88 170 7.0 13.0 0.00 0.00 0.00 80 1006.2
20260506164135 87 172 6.0 19.0 0.00 0.00 0.00 80 1006.0
20260506162625 86 126 6.0 16.0 0.00 0.00 0.00 82 1006.1
20260506161121 86 162 6.0 13.0 0.00 0.00 0.00 83 1005.9
20260506155637 86 166 3.0 10.0 0.00 0.00 0.00 85 1005.9
20260506154147 84 117 5.0 11.0 0.00 0.00 0.00 86 1005.9
20260506152624 84 116 7.0 12.0 0.00 0.00 0.00 87 1005.7
20260506151134 83 125 6.0 9.0 0.00 0.00 0.00 89 1006.0
20260506145624 82 171 3.0 9.0 0.00 0.00 0.00 88 1006.3
20260506144119 83 141 1.0 8.0 0.00 0.00 0.00 89 1006.4
20260506142636 82 157 3.0 10.0 0.00 0.00 0.00 91 1006.4
20260506141159 81 223 4.0 8.0 0.00 0.00 0.00 92 1006.7
20260506135618 80 174 2.0 7.0 0.00 0.00 0.00 92 1006.7
20260506134134 80 178 3.0 8.0 0.00 0.00 0.00 93 1006.4
20260506132637 80 180 3.0 8.0 0.00 0.00 0.00 93 1006.2
20260506131129 80 144 3.0 9.0 0.00 0.00 0.00 93 1006.2